Location: North Evanston
(42.0634°N, 87.6976°W)
Time: 11:09:33
(UTC+00:00)

Vanguard 3 - Pass Details

Date: 11 May 2026
Orbit: 507 x 3204 km, 33.3° (Epoch: 11 June)

Event Time Altitude Azimuth Distance (km) Brightness Sun altitude
Rises 17:29:29 0° 194° (SSW) 6,488 12.1 65.7°
Reaches altitude 10° 17:35:01 10° 181° (S) 5,783 12.0 65.8°
Maximum altitude 17:47:50 23° 137° (SE) 5,048 11.8 66.0°
Drops below altitude 10° 18:00:44 10° 94° (E) 5,896 11.7 65.8°
Sets 18:06:20 0° 82° (E) 6,647 11.7 65.6°
